Change the Weather History Date:

Friday, March 28, 2014

  Actual Average Record
Temperature  
Mean Temperature 75 °F 69 °F  
Max Temperature 81 °F 78 °F 90 °F (1994)
Min Temperature 69 °F 59 °F 41 °F (2013)
Degree Days  
Heating Degree Days 0 1  
Month to date heating degree days 26 52  
Since 1 July heating degree days 261 437  
Cooling Degree Days 10 5  
Month to date cooling degree days 110 115  
Year to date cooling degree days 318 254  
Growing Degree Days 24 (Base 50)    
Moisture  
Dew Point 65 °F    
Average Humidity 76    
Maximum Humidity 90    
Minimum Humidity 62    
Precipitation  
Precipitation T in 0.12 in 2.26 in (2010)
Month to date precipitation 0.70 3.72  
Year to date precipitation 7.25 8.89  
Sea Level Pressure  
Sea Level Pressure 30.14 in    
Wind  
Wind Speed 15 mph (SE)    
Max Wind Speed 25 mph    
Max Gust Speed 32 mph    
Visibility 10 miles    
Events      
T = Trace of Precipitation, MM = Missing Value Source: NWS Daily Summary

Daily Weather History Graph

Daily Weather History Graph

Search for Another Location

Airport or City:

Trip Planner

Search our weather history database for the weather conditions in past years. The results will help you decide how hot, cold, wet, or windy it might be!

Date:

Astronomy

Mar. 28, 2014 Rise Set
Actual Time 7:16 AM EDT 7:37 PM EDT
Civil Twilight 6:53 AM EDT 8:00 PM EDT
Nautical Twilight 6:25 AM EDT 8:28 PM EDT
Astronomical Twilight 5:58 AM EDT 8:55 PM EDT
Moon 5:34 AM EDT (3/28) 5:41 PM EDT (3/28)
Length of Visible Light 13h 07m
Length of Day
12h 20m
Waning Crescent, 6% of the Moon is Illuminated
Mar 28
Waning Crescent
Mar 30
New
Apr 7
First Quarter
Apr 15
Full
Apr 22
Last Quarter

Hourly Weather History & Observations

Time (EDT) Temp. Heat Index Dew Point Humidity Pressure Visibility Wind Dir Wind Speed Gust Speed Precip Events Conditions
12:53 AM 69.1 °F - 61.0 °F 75% 30.22 in 10.0 mi ESE 12.7 mph - N/A   Mostly Cloudy
1:53 AM 70.0 °F - 62.1 °F 76% 30.19 in 10.0 mi SE 12.7 mph - N/A   Overcast
2:53 AM 70.0 °F - 63.0 °F 78% 30.19 in 10.0 mi SE 10.4 mph - N/A   Scattered Clouds
3:53 AM 70.0 °F - 63.0 °F 78% 30.16 in 10.0 mi ESE 11.5 mph - N/A   Overcast
4:04 AM 70.0 °F - 63.0 °F 78% 30.17 in 10.0 mi SE 10.4 mph - N/A   Mostly Cloudy
4:44 AM 70.0 °F - 63.0 °F 78% 30.16 in 10.0 mi SE 12.7 mph - N/A   Mostly Cloudy
4:53 AM 70.0 °F - 63.0 °F 78% 30.16 in 10.0 mi ESE 10.4 mph - N/A   Mostly Cloudy
5:53 AM 70.0 °F - 63.0 °F 78% 30.15 in 10.0 mi ESE 15.0 mph - N/A   Partly Cloudy
6:53 AM 70.0 °F - 64.0 °F 81% 30.17 in 10.0 mi SE 12.7 mph - N/A   Mostly Cloudy
7:53 AM 71.1 °F - 64.0 °F 78% 30.17 in 10.0 mi SE 13.8 mph - N/A   Mostly Cloudy
8:53 AM 71.1 °F - 64.9 °F 81% 30.16 in 10.0 mi SE 16.1 mph - 0.00 in   Mostly Cloudy
9:53 AM 73.0 °F - 64.9 °F 76% 30.17 in 10.0 mi SE 18.4 mph - N/A   Mostly Cloudy
10:53 AM 75.0 °F - 64.9 °F 71% 30.18 in 10.0 mi SE 18.4 mph - N/A   Scattered Clouds
11:53 AM 77.0 °F - 66.0 °F 69% 30.17 in 10.0 mi SE 23.0 mph 28.8 mph N/A   Mostly Cloudy
12:53 PM 79.0 °F - 66.0 °F 64% 30.16 in 10.0 mi SE 24.2 mph 29.9 mph N/A   Mostly Cloudy
1:53 PM 77.0 °F - 66.0 °F 69% 30.14 in 10.0 mi SE 20.7 mph 27.6 mph N/A   Mostly Cloudy
2:53 PM 80.1 °F 82.3 °F 66.9 °F 64% 30.11 in 10.0 mi SE 17.3 mph - N/A   Partly Cloudy
3:53 PM 77.0 °F - 64.9 °F 66% 30.08 in 10.0 mi SE 19.6 mph 26.5 mph N/A   Clear
4:53 PM 77.0 °F - 64.9 °F 66% 30.07 in 10.0 mi SE 19.6 mph 26.5 mph N/A   Clear
5:53 PM 75.9 °F - 64.9 °F 69% 30.06 in 10.0 mi SE 19.6 mph - N/A   Clear
6:53 PM 75.0 °F - 64.9 °F 71% 30.09 in 10.0 mi SE 16.1 mph - N/A   Clear
7:53 PM 73.9 °F - 64.9 °F 73% 30.08 in 10.0 mi SSE 15.0 mph - N/A   Partly Cloudy
8:53 PM 73.9 °F - 66.0 °F 76% 30.09 in 10.0 mi SSE 10.4 mph - N/A   Clear
9:53 PM 73.0 °F - 66.9 °F 81% 30.08 in 10.0 mi SE 12.7 mph - N/A   Clear
10:53 PM 73.0 °F - 66.9 °F 81% 30.09 in 10.0 mi SSE 8.1 mph - N/A   Clear
11:53 PM 72.0 °F - 68.0 °F 87% 30.09 in 10.0 mi South 6.9 mph - N/A   Clear